CZ-4B R/B, 61938

Orbit data source: Space-Track

CZ-4B R/B, 61938 is space debris in SSO originally from a launch on Wed, 13 Nov 2024 UTC launched from the Taiyaun Space Center, China (TSC). Debris objects in space refer to the collection of defunct objects orbiting the Earth. Examples of debris include non-operational satellites, rocket bodies, and fragments generated from explosions, collisions, or faulty payload assembly.

Loading next visibility...
CZ-4B R/B details
Identifier
61938, 2024-208C
Orbit
SSO
Last TLE update15 hours ago
Origin
Flag of CNCNSA (CN / PRC)
ManufacturerSAST
MissionSpacecraft
Bus & MotorCZ-4 STAGE 3, Unknown motor
Mass~1,000 kg wet, ~1,000 kg dry
Launch date (UTC)
2024-11-13 (1 week ago)
Launch vehicleUnknown
Launch site
Taiyaun Space Center, China (TSC)
Object type
Payload
Rocket body
Debris
Shape & HBRUnknown
Radar Cross SectionLarge (>1 m²)

Expand to show TLE details & history

TLE from 15 hours ago
0 CZ-4B R/B
1 61938U 24208C   24325.66367889  .00017119  00000-0  67074-3 0  9998
2 61938  98.0005 330.6155 0161449 349.0153  10.7566 15.14545619  1023
Epoch: 2024-11-20T15:55Z
Definitive object data (Epoch: 2024-11-20T15:55:41.856Z)
Latitude-0.00005°
Longitude31.53457°
Altitude416.015 km
Speed7.722 km/s
True Right ascension22h 02m 27s
True Declination0° 00' 00"
Sunlit
Object was in daylight at TLE epoch
Visualization TLE readout
Latitude44.0735°
Longitude-140.03582°
Altitude623.513 km
Speed7.499 km/s
Apparent Right ascension13h 10m 32s
Apparent Declination5° 45' 50"
Sunlit
Object is in daylight
Visualization observer readout
Local Sidereal Time03:50:07
Azimuth48.39° ENE
Elevation-31.399°
Doppler factor1
Orbital elements
Apogee altitude630.716 km
Perigee altitude407.997 km
Semi-major axis6,897.494 km
Eccentricity0.0161449
Inclination98.0005°
RAAN330.6155°
Arg. of periapsis349.0153°
True anomaly11.10887°
Mean anomaly10.7566°
Eccentric anomaly10.93203°
Mean motion3.78884 °/min
BSTAR0.00067074
Orbital period95.02 mins
Loading maneuver chart data...
Loading historical data...
Loading historical data...
Loading historical data...
Loading historical data...
Loading historical data...
Loading historical data...
Loading historical data...
Other satellites on launch #208 in the year 2024 (2024-11-13 UTC)

CZ-4B R/B Visibility forecast

Observer location: undefined°, undefined

Span
Click to sort rows by Start time (UTC) header in descending order
Start Az.
Max El. time (UTC)
Max El. Az.
Max El.
End time (UTC)
End Az.
8 mins2024-11-21 13:05:32.116Z23.977° NE2024-11-21 13:09:32.116Z106.382° ESE38.406°2024-11-21 13:13:32.116Z177.071° S
|